Location: Emporia
(38.4040°N, 96.1810°W)
Time: 15:49:30
(UTC-06:00)

Amateur Radio Satellites - All Passes

Search period start: 27 November 2014 15:19
Search period end: 28 November 2014 15:19
Location: Emporia, 38.4040°N, 96.1810°W

Satellite Date Start Highest point End Downlink Frequencies (MHz)
Time Altitude Azimuth
HORYU 2 27 Nov 15:25:41 15:29:51 41° 261° (W) 15:34:03 437.375
MaSat-1 27 Nov 15:43:09 15:45:06 16° 300° (WNW) 15:46:58 437.345
PHONESAT 2.4 27 Nov 15:44:11 15:47:54 75° 349° (N) 15:51:37 2401.200-2431.200
VERMONT LUNAR 27 Nov 15:48:32 15:52:08 64° 353° (N) 15:55:45 437.305
STARS 27 Nov 16:03:23 16:07:13 30° 290° (WNW) 16:11:03 437.465
JAS-2 27 Nov 16:23:30 16:30:56 57° 70° (ENE) 16:38:35 435.910
MOZHAYETS 4 27 Nov 16:28:12 16:31:31 19° 93° (E) 16:34:48
O/OREOS (USA 219) 27 Nov 16:41:15 16:45:04 28° 257° (WSW) 16:48:54 437.305
RS-15 27 Nov 16:47:22 16:58:18 72° 304° (WNW) 17:09:17 29.354- 29.394
Cubesat XI-IV 27 Nov 16:52:23 16:56:31 23° 65° (ENE) 17:00:38 437.490
AO-7 27 Nov 17:07:03 17:13:59 29° 264° (W) 17:21:00 29.400- 29.500
PHONESAT 2.4 27 Nov 17:23:10 17:26:53 64° 6° (N) 17:30:34 2401.200-2431.200
VERMONT LUNAR 27 Nov 17:27:10 17:30:48 73° 10° (N) 17:34:25 437.305
CUTE-I 27 Nov 17:31:59 17:37:10 52° 72° (ENE) 17:42:21 437.470
MOZHAYETS 4 27 Nov 18:04:32 18:08:51 39° 288° (WNW) 18:13:10
JAS-2 27 Nov 18:09:43 18:16:11 30° 267° (W) 18:22:52 435.910
CUBESAT XI-V 27 Nov 18:14:46 18:17:57 18° 93° (E) 18:21:05 437.345
Cubesat XI-IV 27 Nov 18:31:12 18:36:17 44° 261° (W) 18:41:24 437.490
PRISM 27 Nov 18:37:01 18:41:17 86° 103° (ESE) 18:45:29 437.425
PHONESAT 2.4 27 Nov 19:02:02 19:05:41 55° 203° (SSW) 19:09:19 2401.200-2431.200
PCSat 27 Nov 19:02:14 19:07:24 48° 112° (ESE) 19:12:36 145.827
RS-15 27 Nov 19:04:43 19:13:01 24° 331° (NNW) 19:21:27 29.354- 29.394
VERMONT LUNAR 27 Nov 19:05:47 19:09:10 38° 206° (SSW) 19:12:33 437.305
GONETS M04 27 Nov 19:09:01 19:17:40 56° 78° (ENE) 19:26:13
CUTE-I 27 Nov 19:13:51 19:17:29 18° 267° (W) 19:21:08 437.470
BEESAT 3 27 Nov 19:13:53 19:17:26 29° 113° (ESE) 19:21:04 437.485
SEEDS 27 Nov 19:26:40 19:27:40 11° 64° (ENE) 19:28:40 437.485
HO-68 27 Nov 19:27:14 19:33:25 33° 63° (ENE) 19:39:37 435.675
STRAND 1 27 Nov 19:28:06 19:33:14 86° 284° (WNW) 19:38:18 437.568
BEESAT 2 27 Nov 19:30:33 19:34:24 41° 115° (ESE) 19:38:19 435.950
GOMX 1 27 Nov 19:38:53 19:41:17 14° 66° (ENE) 19:43:37 467.674
AAUSAT CUBESAT 2 27 Nov 19:39:25 19:40:38 11° 64° (ENE) 19:41:51 437.432
AIST 1 27 Nov 19:45:30 19:49:54 87° 96° (E) 19:54:21
CUBESAT XI-V 27 Nov 19:51:11 19:55:33 41° 288° (WNW) 19:59:51 437.345
COMPASS 1 27 Nov 19:54:08 19:57:05 19° 68° (ENE) 20:00:02 437.405
CANX-2 27 Nov 19:54:28 19:58:06 29° 70° (ENE) 20:01:44 2200.000
DX 1 27 Nov 20:06:30 20:08:01 12° 63° (ENE) 20:09:33 434.975-435.025
AIST 2 27 Nov 20:13:12 20:17:19 59° 117° (ESE) 20:21:33 435.215
BRITE-PL 27 Nov 20:14:35 20:19:22 48° 74° (ENE) 20:23:48 437.365/2234.400
DOVE 4 27 Nov 20:24:04 20:28:03 31° 71° (ENE) 20:31:52 437.250
CUTE 1.7 + AOD 2 27 Nov 20:28:13 20:32:23 65° 75° (ENE) 20:36:35 437.475
ZACube-1 27 Nov 20:37:19 20:38:15 11° 64° (ENE) 20:39:10 437.345
PHONESAT 2.4 27 Nov 20:42:18 20:43:58 13° 217° (SW) 20:45:37 2401.200-2431.200
CINEMA 3 27 Nov 20:45:46 20:49:36 31° 71° (ENE) 20:53:19 145.822/145.860
PCSat 27 Nov 20:46:41 20:51:03 24° 310° (NW) 20:55:26 145.827
BEESAT 3 27 Nov 20:52:15 20:55:39 24° 310° (NW) 20:59:06 437.485
SEEDS 27 Nov 20:58:48 21:02:56 62° 259° (W) 21:07:07 437.485
UKube-1 27 Nov 21:01:59 21:06:08 46° 72° (ENE) 21:10:19 .
GONETS M04 27 Nov 21:06:41 21:13:55 30° 277° (W) 21:21:07
DELFI C3 27 Nov 21:07:07 21:11:01 47° 74° (ENE) 21:14:58 145.870
FUNcube-1 27 Nov 21:09:03 21:12:27 25° 70° (ENE) 21:15:51 145.935
BEESAT 2 27 Nov 21:09:51 21:12:52 19° 312° (NW) 21:15:54 435.950
AISAT 27 Nov 21:10:33 21:13:39 19° 66° (ENE) 21:16:46 437.250
Oscar 11 27 Nov 21:11:40 21:15:56 66° 75° (ENE) 21:20:13 145.826/435.025
AAUSAT CUBESAT 2 27 Nov 21:11:41 21:15:47 59° 260° (W) 21:19:55 437.432
HO-68 27 Nov 21:13:59 21:20:50 47° 260° (W) 21:27:45 435.675
GOMX 1 27 Nov 21:14:22 21:19:02 54° 260° (W) 21:23:26 467.674
50 SAT 27 Nov 21:15:46 21:17:54 14° 66° (ENE) 21:20:02 437.505
RS-15 27 Nov 21:24:50 21:31:17 17° 8° (N) 21:37:49 29.354- 29.394
COMPASS 1 27 Nov 21:28:50 21:32:35 32° 263° (W) 21:36:21 437.405
CANX-2 27 Nov 21:30:48 21:34:02 21° 266° (W) 21:37:17 2200.000
HUMSAT D 27 Nov 21:38:38 21:42:18 32° 71° (ENE) 21:45:58 437.325/437.525
UWE-3 27 Nov 21:39:19 21:43:31 67° 76° (ENE) 21:47:40 435.000/436.395/437.385
DX 1 27 Nov 21:39:22 21:43:43 64° 258° (WSW) 21:48:04 434.975-435.025
CUBEBUG 2 27 Nov 21:43:13 21:47:29 88° 75° (ENE) 21:51:41 437.445
AIST 2 27 Nov 21:53:45 21:56:20 16° 315° (NW) 21:58:57 435.215
BRITE-PL 27 Nov 21:54:57 21:58:01 16° 266° (W) 22:00:58 437.365/2234.400
DOVE 4 27 Nov 22:02:16 22:05:49 22° 264° (W) 22:09:15 437.250
POLYITAN 1 27 Nov 22:08:22 22:08:39 10° 91° (E) 22:08:55 437.675
QB50P2 27 Nov 22:09:03 22:09:52 10° 91° (E) 22:10:40 145.880/145.840
ZACube-1 27 Nov 22:09:56 22:14:06 61° 259° (W) 22:18:14 437.345
ANTELSAT 27 Nov 22:10:47 22:13:59 19° 94° (E) 22:17:14 437.575/2403.000
DUCHIFAT 1 27 Nov 22:13:06 22:14:36 12° 91° (E) 22:16:06 145.980
VELOX 1 27 Nov 22:17:52 22:22:21 82° 257° (WSW) 22:26:51 145.980
CINEMA 3 27 Nov 22:23:35 22:26:50 20° 265° (W) 22:30:01 145.822/145.860
ESTCUBE 1 27 Nov 22:23:54 22:28:11 42° 72° (ENE) 22:32:29 437.505/2401.250
ISS 27 Nov 22:25:55 22:29:03 44° 136° (SE) 22:32:12 145.825
NANOSAT C BR1 27 Nov 22:31:26 22:34:34 20° 95° (E) 22:37:40 145.865
SPROUT 27 Nov 22:34:09 22:35:12 11° 63° (ENE) 22:36:15 437.525
UKube-1 27 Nov 22:40:10 22:42:31 14° 267° (W) 22:44:53 .
QB50P1 27 Nov 22:41:17 22:44:50 26° 96° (E) 22:48:22 145.935-145.965
BUGSAT 1 27 Nov 22:41:38 22:44:42 20° 95° (E) 22:47:43 437.445
DELFI C3 27 Nov 22:45:00 22:46:35 12° 269° (W) 22:48:11 145.870
FUNcube-1 27 Nov 22:45:19 22:48:44 24° 264° (W) 22:52:09 145.935
AISAT 27 Nov 22:45:49 22:50:00 38° 261° (W) 22:54:11 437.250
50 SAT 27 Nov 22:49:02 22:52:51 41° 261° (W) 22:56:41 437.505
CUBEBUG 1 27 Nov 22:50:40 22:55:06 81° 76° (ENE) 22:59:34 437.445
TIGRISAT 27 Nov 23:02:36 23:07:03 71° 102° (ESE) 23:11:36 435.000
POPSAT HIP 1 27 Nov 23:05:56 23:10:04 51° 100° (E) 23:14:09 437.405
CUSAT 1 27 Nov 23:07:59 23:12:27 31° 78° (ENE) 23:18:06 437.405
HUMSAT D 27 Nov 23:15:19 23:18:10 18° 266° (W) 23:21:02 437.325/437.525
UNISAT 6 27 Nov 23:17:26 23:21:54 78° 284° (WNW) 23:26:29 437.425
JUGNU 27 Nov 23:26:45 23:28:06 11° 173° (S) 23:29:28 437.505
RS-15 27 Nov 23:38:16 23:48:22 37° 42° (NE) 23:58:48 29.354- 29.394
AUBIESAT-1 27 Nov 23:39:22 23:42:05 17° 59° (ENE) 23:44:57 437.475
POLYITAN 1 27 Nov 23:40:47 23:44:57 60° 285° (WNW) 23:49:07 437.675
QB50P2 27 Nov 23:41:58 23:46:08 58° 286° (WNW) 23:50:16 145.880/145.840
DANDE 27 Nov 23:42:37 23:47:21 53° 80° (E) 23:53:41 436.750
M-CUBED/EXP-1 PRIME 27 Nov 23:45:33 23:48:43 21° 61° (ENE) 23:52:05 437.505
DUCHIFAT 1 27 Nov 23:46:40 23:50:46 51° 286° (WNW) 23:54:50 145.980
ANTELSAT 27 Nov 23:46:45 23:50:52 37° 288° (WNW) 23:55:04 437.575/2403.000
MaSat-1 27 Nov 23:47:58 23:49:17 14° 59° (ENE) 23:50:36 437.345
TISAT 1 27 Nov 23:50:01 23:54:18 88° 257° (WSW) 23:58:35 437.305
ITUPSAT 1 27 Nov 23:59:35 00:02:46 18° 65° (ENE) 00:05:57 437.325
ESTCUBE 1 28 Nov 00:02:16 00:05:14 17° 267° (W) 00:08:12 437.505/2401.250
ISS 28 Nov 00:03:09 00:05:49 22° 333° (NNW) 00:08:29 145.825
SPROUT 28 Nov 00:06:26 00:10:43 66° 259° (W) 00:15:02 437.525
NANOSAT C BR1 28 Nov 00:06:46 00:10:28 30° 289° (WNW) 00:14:10 145.865
SWISSCUBE 28 Nov 00:08:56 00:12:45 24° 67° (ENE) 00:16:35 437.505
BUGSAT 1 28 Nov 00:16:44 00:20:12 27° 290° (WNW) 00:23:37 437.445
QB50P1 28 Nov 00:17:14 00:20:37 24° 291° (WNW) 00:24:00 145.935-145.965
BEESAT 28 Nov 00:38:41 00:43:13 44° 72° (ENE) 00:47:46 436.000
TIGRISAT 28 Nov 00:42:04 00:43:14 11° 297° (WNW) 00:44:24 435.000
POPSAT HIP 1 28 Nov 00:43:34 00:45:31 13° 295° (WNW) 00:47:28 437.405
CUSAT 1 28 Nov 00:50:54 00:55:30 33° 265° (W) 01:01:20 437.405
AUBIESAT-1 28 Nov 01:12:46 01:16:39 44° 257° (WSW) 01:20:54 437.475
JUGNU 28 Nov 01:14:13 01:16:13 12° 184° (S) 01:18:13 437.505
Oscar 19 28 Nov 01:15:38 01:20:07 29° 96° (E) 01:24:35 437.125/150
M-CUBED/EXP-1 PRIME 28 Nov 01:19:50 01:23:31 33° 259° (W) 01:27:32 437.505
MaSat-1 28 Nov 01:22:51 01:23:34 11° 252° (WSW) 01:24:18 437.345
STARS 28 Nov 01:23:58 01:26:52 18° 66° (ENE) 01:29:46 437.465
DANDE 28 Nov 01:27:18 01:30:46 18° 267° (W) 01:34:52 436.750
SRMSAT 28 Nov 01:28:55 01:31:05 12° 176° (S) 01:33:16 437.500
ITUPSAT 1 28 Nov 01:35:38 01:40:15 48° 260° (W) 01:44:56 437.325
SWISSCUBE 28 Nov 01:46:05 01:50:25 34° 263° (W) 01:54:47 437.505
RS-15 28 Nov 01:50:26 02:01:37 71° 245° (WSW) 02:13:19 29.354- 29.394
KKS-1 28 Nov 02:07:23 02:11:50 79° 76° (ENE) 02:16:17 437.445
ITAMSAT 1 28 Nov 02:13:18 02:18:09 39° 98° (E) 02:22:57 435.822/435.867
YUBILEINY 28 Nov 02:17:07 02:25:43 61° 91° (E) 02:34:17 435.215
BEESAT 28 Nov 02:18:02 02:21:15 18° 267° (W) 02:24:28 436.000
SO-50 28 Nov 02:28:39 02:32:10 23° 111° (ESE) 02:35:47 436.795
Oscar 19 28 Nov 02:54:53 02:59:23 31° 292° (WNW) 03:03:53 437.125/150
Gurwin Techsat 1B 28 Nov 02:58:04 03:03:21 62° 101° (E) 03:08:35 435.225
STARS 28 Nov 02:58:53 03:03:02 40° 261° (W) 03:07:11 437.465
AO-7 28 Nov 03:17:36 03:23:14 19° 92° (E) 03:28:49 29.400- 29.500
SRMSAT 28 Nov 03:17:47 03:19:22 11° 187° (S) 03:20:57 437.500
HORYU 2 28 Nov 03:18:36 03:22:52 41° 99° (E) 03:27:08 437.375
ISS 28 Nov 03:20:37 03:21:22 11° 13° (NNE) 03:22:08 145.825
MOZHAYETS 4 28 Nov 03:29:43 03:32:29 16° 65° (ENE) 03:35:15
BEESAT 3 28 Nov 03:35:48 03:38:17 15° 45° (NE) 03:40:44 437.485
PCSat 28 Nov 03:51:48 03:56:32 30° 53° (NE) 04:01:14 145.827
BEESAT 2 28 Nov 03:52:41 03:55:47 19° 48° (NE) 03:58:50 435.950
ITAMSAT 1 28 Nov 03:53:19 03:57:23 24° 294° (WNW) 04:01:26 435.822/435.867
RS-15 28 Nov 04:07:06 04:11:58 14° 263° (W) 04:16:57 29.354- 29.394
SO-50 28 Nov 04:08:18 04:12:29 36° 308° (NW) 04:16:48 436.795
YUBILEINY 28 Nov 04:15:45 04:23:00 28° 290° (WNW) 04:30:17 435.215
AIST 2 28 Nov 04:37:00 04:40:41 26° 50° (NE) 04:44:18 435.215
Gurwin Techsat 1B 28 Nov 04:39:33 04:42:45 16° 297° (WNW) 04:45:57 435.225
ISS 28 Nov 04:55:44 04:58:47 35° 32° (NNE) 05:01:51 145.825
HORYU 2 28 Nov 04:56:13 04:59:13 18° 294° (WNW) 05:02:13 437.375
MOZHAYETS 4 28 Nov 05:04:50 05:09:16 49° 261° (W) 05:13:46
STRAND 1 28 Nov 05:06:25 05:09:01 14° 62° (ENE) 05:11:37 437.568
AO-7 28 Nov 05:08:24 05:16:47 82° 289° (WNW) 05:25:09 29.400- 29.500
O/OREOS (USA 219) 28 Nov 05:12:29 05:16:36 37° 105° (ESE) 05:20:44 437.305
BEESAT 3 28 Nov 05:12:45 05:16:52 58° 243° (WSW) 05:20:56 437.485
CUBESAT XI-V 28 Nov 05:17:31 05:20:25 16° 65° (ENE) 05:23:19 437.345
JAS-2 28 Nov 05:21:03 05:27:47 54° 98° (E) 05:33:41 435.910
PRISM 28 Nov 05:26:23 05:30:27 51° 73° (ENE) 05:34:35 437.425
BEESAT 2 28 Nov 05:30:17 05:34:15 41° 245° (WSW) 05:38:09 435.950
PCSat 28 Nov 05:35:01 05:39:59 38° 250° (WSW) 05:44:55 145.827
CUTE-I 28 Nov 05:51:23 05:55:32 23° 94° (E) 05:59:40 437.470
AIST 1 28 Nov 05:55:30 05:58:35 19° 73° (ENE) 06:01:38
AIST 2 28 Nov 06:15:33 06:19:16 29° 247° (WSW) 06:22:56 435.215
GONETS M04 28 Nov 06:20:09 06:21:14 10° 73° (ENE) 06:22:19
ISS 28 Nov 06:32:38 06:35:18 23° 228° (SW) 06:37:58 145.825
STRAND 1 28 Nov 06:42:28 06:47:35 70° 258° (WSW) 06:52:44 437.568
Cubesat XI-IV 28 Nov 06:49:45 06:55:06 85° 104° (ESE) 07:00:25 437.490
O/OREOS (USA 219) 28 Nov 06:52:49 06:56:07 20° 301° (WNW) 06:59:25 437.305
CUBESAT XI-V 28 Nov 06:52:51 06:57:25 50° 261° (W) 07:02:02 437.345
AO-7 28 Nov 07:03:12 07:08:19 18° 309° (NW) 07:13:26 29.400- 29.500
PRISM 28 Nov 07:04:42 07:06:18 12° 268° (W) 07:07:54 437.425
JAS-2 28 Nov 07:06:51 07:12:16 25° 299° (WNW) 07:17:14 435.910
CUTE-I 28 Nov 07:30:46 07:35:44 41° 290° (WNW) 07:40:39 437.470
AIST 1 28 Nov 07:32:25 07:36:19 33° 269° (W) 07:40:10
GONETS M04 28 Nov 08:07:32 08:16:13 68° 92° (E) 08:24:58
CUTE 1.7 + AOD 2 28 Nov 08:17:07 08:19:06 13° 91° (E) 08:21:05 437.475
BRITE-PL 28 Nov 08:22:17 08:24:27 14° 93° (E) 08:26:38 437.365/2234.400
Cubesat XI-IV 28 Nov 08:32:26 08:34:25 12° 300° (WNW) 08:36:24 437.490
HO-68 28 Nov 08:43:14 08:49:47 37° 98° (E) 08:56:17 435.675
SEEDS 28 Nov 08:45:40 08:49:09 24° 95° (E) 08:52:38 437.485
AAUSAT CUBESAT 2 28 Nov 08:57:24 09:00:52 24° 95° (E) 09:04:18 437.432
Oscar 11 28 Nov 09:02:22 09:04:33 14° 92° (E) 09:06:44 145.826/435.025
ANTELSAT 28 Nov 09:10:09 09:12:22 14° 65° (ENE) 09:14:36 437.575/2403.000
COMPASS 1 28 Nov 09:14:01 09:18:05 43° 99° (E) 09:22:08 437.405
CANX-2 28 Nov 09:16:41 09:20:59 72° 102° (ESE) 09:25:17 2200.000
GOMX 1 28 Nov 09:17:34 09:21:34 43° 99° (E) 09:25:42 467.674
NANOSAT C BR1 28 Nov 09:24:21 09:26:31 14° 65° (ENE) 09:28:40 145.865
DX 1 28 Nov 09:30:02 09:33:33 24° 96° (E) 09:37:02 434.975-435.025
BUGSAT 1 28 Nov 09:31:49 09:33:59 14° 65° (ENE) 09:36:09 437.445
UWE-3 28 Nov 09:32:09 09:34:38 15° 93° (E) 09:37:08 435.000/436.395/437.385
QB50P1 28 Nov 09:33:51 09:36:41 18° 67° (ENE) 09:39:32 145.935-145.965
CUBEBUG 2 28 Nov 09:36:40 09:39:49 20° 95° (E) 09:43:02 437.445
CUTE 1.7 + AOD 2 28 Nov 09:51:08 09:55:17 49° 286° (WNW) 09:59:26 437.475
POPSAT HIP 1 28 Nov 09:57:54 10:01:42 32° 71° (ENE) 10:05:29 437.405
BRITE-PL 28 Nov 09:59:16 10:03:10 41° 287° (WNW) 10:07:10 437.365/2234.400
TIGRISAT 28 Nov 10:00:25 10:04:31 50° 74° (ENE) 10:08:38 435.000
ZACube-1 28 Nov 10:00:33 10:04:11 27° 96° (E) 10:07:52 437.345
DOVE 4 28 Nov 10:01:31 10:05:44 77° 284° (WNW) 10:10:06 437.250
GONETS M04 28 Nov 10:06:48 10:13:43 25° 292° (WNW) 10:20:43
VELOX 1 28 Nov 10:11:14 10:14:36 21° 95° (E) 10:17:56 145.980
UNISAT 6 28 Nov 10:15:22 10:19:38 78° 76° (ENE) 10:23:54 437.425
CINEMA 3 28 Nov 10:18:27 10:22:43 83° 283° (WNW) 10:27:08 145.822/145.860
SEEDS 28 Nov 10:21:20 10:24:55 26° 290° (WNW) 10:28:29 437.485
DELFI C3 28 Nov 10:24:32 10:28:41 76° 284° (WNW) 10:32:48 145.870
UKube-1 28 Nov 10:27:18 10:31:39 76° 285° (WNW) 10:35:57 .
HO-68 28 Nov 10:30:53 10:37:27 40° 295° (WNW) 10:43:58 435.675
50 SAT 28 Nov 10:31:36 10:35:09 28° 97° (E) 10:38:42 437.505
POLYITAN 1 28 Nov 10:32:33 10:36:48 84° 77° (ENE) 10:41:04 437.675
AAUSAT CUBESAT 2 28 Nov 10:32:57 10:36:28 26° 290° (WNW) 10:39:59 437.432
QB50P2 28 Nov 10:33:30 10:37:45 86° 78° (ENE) 10:42:01 145.880/145.840
FUNcube-1 28 Nov 10:34:23 10:38:38 66° 101° (E) 10:42:58 145.935
Oscar 11 28 Nov 10:36:46 10:40:58 48° 287° (WNW) 10:45:09 145.826/435.025
DUCHIFAT 1 28 Nov 10:37:48 10:42:03 86° 257° (WSW) 10:46:19 145.980
AISAT 28 Nov 10:38:27 10:42:40 43° 99° (E) 10:46:52 437.250
CUBEBUG 1 28 Nov 10:42:46 10:45:32 16° 93° (E) 10:48:17 437.445
ANTELSAT 28 Nov 10:44:39 10:48:46 47° 260° (W) 10:52:54 437.575/2403.000
COMPASS 1 28 Nov 10:50:57 10:53:27 15° 294° (WNW) 10:55:57 437.405
GOMX 1 28 Nov 10:57:07 10:59:23 14° 294° (WNW) 11:01:40 467.674
NANOSAT C BR1 28 Nov 10:57:51 11:01:58 49° 260° (W) 11:06:06 145.865
HUMSAT D 28 Nov 10:59:55 11:04:07 79° 102° (ESE) 11:08:21 437.325/437.525
SO-50 28 Nov 11:01:11 11:04:36 19° 45° (NE) 11:08:02 436.795
BUGSAT 1 28 Nov 11:04:57 11:09:04 49° 260° (W) 11:13:11 437.445
DX 1 28 Nov 11:06:04 11:09:45 27° 291° (WNW) 11:13:24 434.975-435.025
UWE-3 28 Nov 11:07:18 11:11:21 42° 287° (WNW) 11:15:28 435.000/436.395/437.385
QB50P1 28 Nov 11:08:22 11:12:18 37° 262° (W) 11:16:15 145.935-145.965
CUBEBUG 2 28 Nov 11:12:45 11:16:34 32° 289° (WNW) 11:20:28 437.445
POPSAT HIP 1 28 Nov 11:34:35 11:37:39 19° 266° (W) 11:40:43 437.405
ZACube-1 28 Nov 11:37:01 11:40:27 24° 291° (WNW) 11:43:55 437.345
TISAT 1 28 Nov 11:38:02 11:40:42 16° 93° (E) 11:43:21 437.305
TIGRISAT 28 Nov 11:39:52 11:41:34 12° 268° (W) 11:43:16 435.000
VELOX 1 28 Nov 11:47:18 11:51:13 32° 290° (WNW) 11:55:06 145.980
ESTCUBE 1 28 Nov 11:54:54 11:59:25 71° 285° (WNW) 12:03:54 437.505/2401.250
SPROUT 28 Nov 11:55:31 11:58:58 23° 95° (E) 12:02:23 437.525
50 SAT 28 Nov 12:07:14 12:10:17 21° 291° (WNW) 12:13:19 437.505
FUNcube-1 28 Nov 12:13:37 12:14:27 11° 296° (WNW) 12:15:18 145.935
AISAT 28 Nov 12:16:12 12:18:56 16° 295° (WNW) 12:21:40 437.250
CUBEBUG 1 28 Nov 12:18:00 12:22:04 39° 288° (WNW) 12:26:05 437.445
CUSAT 1 28 Nov 12:21:48 12:23:50 20° 94° (E) 12:25:49 437.405
YUBILEINY 28 Nov 12:29:53 12:36:59 27° 69° (ENE) 12:44:00 435.215
Oscar 19 28 Nov 12:31:05 12:35:43 36° 70° (ENE) 12:40:23 437.125/150
SO-50 28 Nov 12:40:44 12:45:34 62° 242° (WSW) 12:50:24 436.795
BEESAT 28 Nov 12:42:34 12:44:39 13° 91° (E) 12:46:44 436.000
Gurwin Techsat 1B 28 Nov 12:43:01 12:43:51 10° 59° (ENE) 12:44:40 435.225
AUBIESAT-1 28 Nov 12:57:36 13:01:06 19° 97° (E) 13:04:28 437.475
DANDE 28 Nov 12:58:58 13:01:42 72° 98° (E) 13:04:17 436.750
M-CUBED/EXP-1 PRIME 28 Nov 13:04:21 13:08:24 25° 99° (E) 13:12:18 437.505
TISAT 1 28 Nov 13:12:47 13:16:40 37° 288° (WNW) 13:20:31 437.305
ITAMSAT 1 28 Nov 13:29:44 13:34:46 52° 72° (ENE) 13:39:50 435.822/435.867
SPROUT 28 Nov 13:31:24 13:35:00 27° 290° (WNW) 13:38:35 437.525
VERMONT LUNAR 28 Nov 13:32:49 13:36:16 45° 156° (SSE) 13:39:45 437.305
PHONESAT 2.4 28 Nov 13:33:01 13:36:23 34° 152° (SSE) 13:39:46 2401.200-2431.200
ITUPSAT 1 28 Nov 13:37:50 13:42:31 49° 100° (E) 13:47:08 437.325
SWISSCUBE 28 Nov 13:47:37 13:52:24 70° 102° (ESE) 13:57:09 437.505
KKS-1 28 Nov 14:01:27 14:04:22 17° 93° (E) 14:07:16 437.445
RS-15 28 Nov 14:04:24 14:11:30 20° 100° (E) 14:18:32 29.354- 29.394
Oscar 19 28 Nov 14:11:01 14:15:07 24° 265° (W) 14:19:14 437.125/150
AO-7 28 Nov 14:15:13 14:21:40 26° 56° (ENE) 14:28:08 29.400- 29.500
HORYU 2 28 Nov 14:16:04 14:19:59 32° 70° (ENE) 14:23:56 437.375
Gurwin Techsat 1B 28 Nov 14:17:38 14:22:56 84° 76° (ENE) 14:28:17 435.225
BEESAT 28 Nov 14:18:09 14:22:53 61° 286° (WNW) 14:27:34 436.000
YUBILEINY 28 Nov 14:25:48 14:34:19 62° 269° (W) 14:42:48 435.215
AUBIESAT-1 28 Nov 14:31:34 14:36:15 45° 293° (WNW) 14:40:45 437.475
M-CUBED/EXP-1 PRIME 28 Nov 14:38:57 14:43:26 36° 295° (WNW) 14:47:46 437.505
MaSat-1 28 Nov 14:47:16 14:50:13 66° 295° (WNW) 14:52:54 437.345
STARS 28 Nov 14:50:23 14:54:32 40° 99° (E) 14:58:40 437.465
VERMONT LUNAR 28 Nov 15:11:06 15:14:42 67° 352° (N) 15:18:19 437.305
ITAMSAT 1 28 Nov 15:11:07 15:14:32 18° 267° (W) 15:17:57 435.822/435.867
PHONESAT 2.4 28 Nov 15:11:19 15:15:01 78° 348° (NNW) 15:18:45 2401.200-2431.200
